Millville, NJ

1:26 PM EST on December 04, 2016 (GMT -0500)
Millville Municipal

Weather History for KMIV - December, 2012

Change the Weather History Date:

Saturday, December 8, 2012

  Actual Average Record
Temperature  
Mean Temperature 52 °F -  
Max Temperature 53 °F 48 °F 71 °F (1956)
Min Temperature 48 °F 32 °F 12 °F (1970)
Degree Days  
Heating Degree Days 14    
Growing Degree Days 2 (Base 50)    
Moisture  
Dew Point 50 °F    
Average Humidity 97    
Maximum Humidity 100    
Minimum Humidity 92    
Precipitation  
Precipitation 0.79 in - - ()
Sea Level Pressure  
Sea Level Pressure 29.94 in    
Wind  
Wind Speed 2 mph (WSW)    
Max Wind Speed 7 mph    
Max Gust Speed -    
Visibility 2 miles    
Events Fog , Rain    
Averages and records for this station are not official NWS values.
T = Trace of Precipitation, MM = Missing Value Source: NWS Daily Summary

Daily Weather History Graph

Daily Weather History Graph

Search for Another Location

Airport or City:

Trip Planner

Search our weather history database for the weather conditions in past years. The results will help you decide how hot, cold, wet, or windy it might be!

Date:

Astronomy

Dec. 08, 2012 Rise Set
Actual Time 7:08 AM EST 4:36 PM EST
Civil Twilight 6:38 AM EST 5:06 PM EST
Nautical Twilight 6:04 AM EST 5:40 PM EST
Astronomical Twilight 5:31 AM EST 6:12 PM EST
Moon 1:31 AM EST (12/8) 1:04 PM EST (12/8)
Length of Visible Light 10h 28m
Length of Day
9h 28m
Waning Crescent, 28% of the Moon is Illuminated
Dec 8
Waning Crescent
Dec 13
New
Dec 20
First Quarter
Dec 28
Full
Jan 4
Last Quarter

Hourly Weather History & Observations

Time (EST) Temp. Dew Point Humidity Pressure Visibility Wind Dir Wind Speed Gust Speed Precip Events Conditions
12:29 AM 50.0 °F 48.2 °F 94% 29.96 in 2.5 mi Calm Calm - 0.10 in Rain Rain
12:40 AM 50.0 °F 48.2 °F 94% 29.95 in 2.5 mi ENE 3.5 mph - 0.15 in Rain Heavy Rain
12:54 AM 50.0 °F 50.0 °F 100% 29.95 in 1.8 mi Calm Calm - 0.26 in Rain Heavy Rain
1:08 AM 51.8 °F 51.8 °F 100% 29.96 in 2.0 mi WNW 5.8 mph - 0.09 in Rain Heavy Rain
1:12 AM 51.8 °F 50.0 °F 94% 29.96 in 1.5 mi WNW 5.8 mph - 0.11 in Rain Heavy Rain
1:30 AM 51.8 °F 51.8 °F 100% 29.95 in 2.0 mi Calm Calm - 0.22 in Rain Heavy Rain
1:38 AM 50.0 °F 50.0 °F 100% 29.96 in 2.0 mi WNW 4.6 mph - 0.26 in Rain Heavy Rain
1:49 AM 51.8 °F 50.0 °F 94% 29.96 in 1.0 mi Calm Calm - 0.40 in Rain Heavy Rain
1:54 AM 51.1 °F 51.1 °F 100% 29.95 in 1.0 mi Calm Calm - 0.44 in Rain Heavy Rain
2:08 AM 50.0 °F 50.0 °F 100% 29.95 in 3.0 mi Calm Calm - 0.02 in Rain Light Rain
2:54 AM 51.1 °F 51.1 °F 100% 29.93 in 5.0 mi Calm Calm - 0.05 in Rain Light Rain
3:11 AM 51.8 °F 51.8 °F 100% 29.93 in 3.0 mi Calm Calm - 0.00 in Rain Light Rain
3:18 AM 51.8 °F 51.8 °F 100% 29.93 in 2.0 mi Calm Calm - 0.01 in Rain Light Rain
3:33 AM 51.8 °F 50.0 °F 94% 29.93 in 1.2 mi Calm Calm - 0.01 in   Overcast
3:54 AM 51.1 °F 50.0 °F 96% 29.92 in 1.0 mi Calm Calm - 0.02 in Rain Light Rain
4:04 AM 51.8 °F 51.8 °F 100% 29.92 in 1.8 mi Calm Calm - 0.00 in Rain Light Rain
4:14 AM 51.8 °F 50.0 °F 94% 29.92 in 1.0 mi Calm Calm - 0.01 in Rain Rain
4:23 AM 51.8 °F 51.8 °F 100% 29.92 in 3.0 mi Calm Calm - 0.01 in Rain Light Rain
4:39 AM 53.6 °F 51.8 °F 94% 29.91 in 4.0 mi Calm Calm - 0.01 in Rain Light Rain
4:54 AM 53.1 °F 52.0 °F 96% 29.91 in 5.0 mi Calm Calm - 0.02 in   Overcast
5:02 AM 53.6 °F 51.8 °F 94% 29.91 in 6.0 mi Calm Calm - N/A   Overcast
6:05 AM 51.8 °F 51.8 °F 100% 29.92 in 1.8 mi Calm Calm - N/A   Overcast
6:10 AM 51.8 °F 51.8 °F 100% 29.92 in 2.0 mi West 3.5 mph - N/A   Overcast
6:18 AM 51.8 °F 51.8 °F 100% 29.92 in 10.0 mi Calm Calm - N/A   Overcast
6:39 AM 51.8 °F 51.8 °F 100% 29.92 in 5.0 mi Calm Calm - N/A   Overcast
6:54 AM 51.1 °F 51.1 °F 100% 29.92 in 4.0 mi Calm Calm - N/A   Overcast
7:17 AM 51.8 °F 51.8 °F 100% 29.92 in 3.0 mi Calm Calm - N/A   Overcast
7:24 AM 51.8 °F 51.8 °F 100% 29.92 in 2.0 mi Calm Calm - N/A   Overcast
7:33 AM 51.8 °F 51.8 °F 100% 29.92 in 1.5 mi Calm Calm - N/A   Overcast
7:54 AM 51.1 °F 51.1 °F 100% 29.93 in 1.5 mi Calm Calm - N/A   Overcast
8:01 AM 51.8 °F 50.0 °F 94% 29.93 in 3.0 mi Calm Calm - N/A   Overcast
8:13 AM 51.8 °F 51.8 °F 100% 29.93 in 2.0 mi Calm Calm - N/A   Overcast
8:25 AM 51.8 °F 50.0 °F 94% 29.93 in 4.0 mi WSW 4.6 mph - N/A   Overcast
8:54 AM 51.1 °F 50.0 °F 96% 29.94 in 9.0 mi WSW 4.6 mph - N/A   Overcast
9:54 AM 51.1 °F 50.0 °F 96% 29.95 in 6.0 mi West 6.9 mph - N/A   Overcast
10:54 AM 51.1 °F 48.9 °F 92% 29.94 in 7.0 mi WSW 5.8 mph - N/A   Overcast
11:54 AM 51.1 °F 48.9 °F 92% 29.93 in 5.0 mi West 5.8 mph - N/A   Overcast
12:54 PM 51.1 °F 50.0 °F 96% 29.92 in 5.0 mi WSW 4.6 mph - N/A   Overcast
1:54 PM 51.1 °F 50.0 °F 96% 29.91 in 5.0 mi WSW 5.8 mph - N/A   Overcast
2:54 PM 51.1 °F 50.0 °F 96% 29.92 in 3.0 mi SW 3.5 mph - N/A   Overcast
3:42 PM 50.0 °F 48.2 °F 94% 29.92 in 2.5 mi Calm Calm - N/A   Overcast
3:54 PM 50.0 °F 48.9 °F 96% 29.92 in 2.0 mi Variable 3.5 mph - N/A   Overcast
4:06 PM 50.0 °F 48.2 °F 94% 29.92 in 1.5 mi Calm Calm - N/A   Overcast
4:36 PM 50.0 °F 48.2 °F 94% 29.94 in 0.8 mi West 6.9 mph - N/A   Overcast
4:47 PM 50.0 °F 48.2 °F 94% 29.94 in 1.0 mi West 4.6 mph - N/A   Overcast
4:54 PM 50.0 °F 48.9 °F 96% 29.94 in 1.0 mi WSW 4.6 mph - N/A   Overcast
5:07 PM 50.0 °F 48.2 °F 94% 29.94 in 0.8 mi WSW 3.5 mph - N/A   Mist
5:54 PM 50.0 °F 48.9 °F 96% 29.94 in 0.5 mi Calm Calm - N/A Fog Fog
6:54 PM 50.0 °F 48.9 °F 96% 29.96 in 0.5 mi WSW 3.5 mph - N/A Fog Fog
7:02 PM 50.0 °F 48.2 °F 94% 29.97 in 0.2 mi Variable 4.6 mph - N/A Fog Fog
7:13 PM 50.0 °F 48.2 °F 94% 29.97 in 0.5 mi Calm Calm - N/A Fog Fog
7:26 PM 50.0 °F 50.0 °F 100% 29.98 in 0.2 mi Calm Calm - N/A Fog Fog
7:54 PM 50.0 °F 50.0 °F 100% 29.98 in 0.5 mi SW 3.5 mph - N/A Fog Fog
8:54 PM 50.0 °F 48.9 °F 96% 29.99 in 0.5 mi SW 3.5 mph - N/A Fog Fog
9:25 PM 50.0 °F 48.2 °F 94% 29.99 in 0.2 mi Calm Calm - N/A Fog Fog
9:54 PM 50.0 °F 48.9 °F 96% 30.00 in 0.2 mi WSW 4.6 mph - N/A Fog Fog
10:54 PM 50.0 °F 48.9 °F 96% 30.02 in 0.2 mi WNW 4.6 mph - N/A Fog Fog
11:54 PM 48.9 °F 48.9 °F 100% 30.03 in 0.2 mi Calm Calm - N/A Fog Fog